Palmer, AK

10:32 AM AKDT on September 27, 2016 (GMT -0800)
Palmer Municipal

Weather History for PAAQ - February, 2013

Change the Weather History Date:

Monday, February 18, 2013

  Actual Average Record
Temperature  
Mean Temperature 8 °F -  
Max Temperature 17 °F 27 °F 46 °F (1970)
Min Temperature 0 °F 9 °F -16 °F (1954)
Degree Days  
Heating Degree Days 56    
Moisture  
Dew Point 8 °F    
Average Humidity 83    
Maximum Humidity 92    
Minimum Humidity 62    
Precipitation  
Precipitation 0.04 in - - ()
Sea Level Pressure  
Sea Level Pressure 29.85 in    
Wind  
Wind Speed 3 mph (WSW)    
Max Wind Speed 8 mph    
Max Gust Speed -    
Visibility 5 miles    
Events Snow    
Averages and records for this station are not official NWS values.
T = Trace of Precipitation, MM = Missing Value Source: NWS Daily Summary

Daily Weather History Graph

Daily Weather History Graph

Search for Another Location

Airport or City:

Trip Planner

Search our weather history database for the weather conditions in past years. The results will help you decide how hot, cold, wet, or windy it might be!

Date:

Astronomy

Feb. 18, 2013 Rise Set
Actual Time 8:30 AM AKST 5:51 PM AKST
Civil Twilight 7:44 AM AKST 6:37 PM AKST
Nautical Twilight 6:53 AM AKST 7:28 PM AKST
Astronomical Twilight 6:03 AM AKST 8:18 PM AKST
Moon 10:46 AM AKST (2/18) 4:15 AM AKST (2/18)
Length of Visible Light 10h 52m
Length of Day
9h 21m
First Quarter, 60% of the Moon is Illuminated
Feb 18
First Quarter
Feb 25
Full
Mar 4
Last Quarter
Mar 11
New
Mar 19
First Quarter

Hourly Weather History & Observations

Time (AKST) Temp. Windchill Dew Point Humidity Pressure Visibility Wind Dir Wind Speed Gust Speed Precip Events Conditions
12:02 AM 17.6 °F 7.3 °F 14.0 °F 86% 29.74 in 1.2 mi SW 8.1 mph - 0.00 in Snow Light Snow
12:53 AM 16.0 °F 6.3 °F 12.9 °F 88% 29.78 in 1.2 mi SW 6.9 mph - 0.01 in Snow Light Snow
1:12 AM 15.8 °F 6.1 °F 12.2 °F 86% 29.77 in 1.0 mi SSW 6.9 mph - 0.00 in Snow Light Snow
1:44 AM 15.8 °F 10.2 °F 12.2 °F 86% 29.79 in 1.5 mi SW 3.5 mph - 0.01 in Snow Light Snow
1:53 AM 15.1 °F 6.4 °F 12.0 °F 88% 29.81 in 1.5 mi WSW 5.8 mph - 0.01 in Snow Light Snow
2:53 AM 14.0 °F - 10.9 °F 88% 29.83 in 1.5 mi Calm Calm - 0.01 in Snow Light Snow
3:33 AM 14.0 °F - 10.4 °F 86% 29.81 in 2.0 mi Calm Calm - 0.00 in Snow Light Snow
3:53 AM 14.0 °F 8.2 °F 10.0 °F 84% 29.83 in 2.0 mi East 3.5 mph - 0.00 in Snow Light Snow
4:30 AM 14.0 °F - 10.4 °F 86% 29.81 in 2.5 mi Calm Calm - 0.01 in Snow Light Snow
4:53 AM 14.0 °F - 10.9 °F 88% 29.84 in 3.0 mi Calm Calm - 0.01 in Snow Light Snow
5:43 AM 12.2 °F - 10.4 °F 92% 29.82 in 2.0 mi Calm Calm - 0.00 in Snow Light Snow
5:53 AM 12.9 °F - 10.0 °F 88% 29.85 in 1.8 mi Calm Calm - 0.00 in Snow Light Snow
6:02 AM 12.2 °F - 10.4 °F 92% 29.83 in 3.0 mi Calm Calm - 0.00 in Snow Light Snow
6:53 AM 12.9 °F 6.9 °F 9.0 °F 84% 29.86 in 4.0 mi East 3.5 mph - 0.00 in Snow Light Snow
7:08 AM 12.2 °F - 8.6 °F 85% 29.84 in 2.5 mi Calm Calm - 0.00 in Snow Light Snow
7:17 AM 12.2 °F 6.1 °F 8.6 °F 85% 29.84 in 3.0 mi East 3.5 mph - 0.00 in Snow Light Snow
7:53 AM 14.0 °F - 9.0 °F 80% 29.86 in 5.0 mi Calm Calm - 0.00 in   Haze
8:35 AM 12.2 °F - 10.4 °F 92% 29.85 in 2.5 mi Calm Calm - 0.00 in Snow Light Snow
8:46 AM 14.0 °F 8.2 °F 10.4 °F 86% 29.85 in 1.2 mi North 3.5 mph - 0.00 in Snow Light Snow
8:53 AM 12.9 °F 6.9 °F 10.0 °F 88% 29.87 in 1.2 mi North 3.5 mph - 0.00 in Snow Light Snow
9:12 AM 12.2 °F 6.1 °F 8.6 °F 85% 29.85 in 3.0 mi North 3.5 mph - 0.00 in Snow Light Snow
9:53 AM 10.9 °F 4.7 °F 9.0 °F 92% 29.88 in 10.0 mi NNW 3.5 mph - 0.00 in   Mostly Cloudy
10:53 AM 14.0 °F - 8.1 °F 77% 29.88 in 10.0 mi Calm Calm - N/A   Scattered Clouds
11:53 AM 12.9 °F - 6.1 °F 74% 29.88 in 10.0 mi Calm Calm - N/A   Partly Cloudy
12:53 PM 16.0 °F 8.8 °F 5.0 °F 62% 29.88 in 10.0 mi SW 4.6 mph - N/A   Partly Cloudy
1:53 PM 16.0 °F 7.4 °F 6.1 °F 65% 29.89 in 10.0 mi SSW 5.8 mph - N/A   Scattered Clouds
2:53 PM 16.0 °F 8.8 °F 5.0 °F 62% 29.90 in 10.0 mi SW 4.6 mph - N/A   Mostly Cloudy
3:53 PM 15.1 °F - 6.1 °F 68% 29.90 in 10.0 mi Calm Calm - N/A   Scattered Clouds
4:53 PM 10.9 °F - 5.0 °F 77% 29.88 in 10.0 mi Calm Calm - N/A   Scattered Clouds
5:53 PM 10.0 °F - 6.1 °F 84% 29.88 in 9.0 mi Calm Calm - N/A   Scattered Clouds
6:53 PM 8.1 °F - 5.0 °F 87% 29.88 in 10.0 mi Calm Calm - N/A   Clear
7:53 PM 7.0 °F - 3.0 °F 84% 29.87 in 10.0 mi Calm Calm - N/A   Clear
8:53 PM 3.0 °F -6.4 °F -0.0 °F 87% 29.88 in 9.0 mi ENE 4.6 mph - N/A   Clear
9:53 PM -0.0 °F -11.6 °F -4.0 °F 83% 29.87 in 10.0 mi North 5.8 mph - N/A   Clear
10:53 PM 3.0 °F - -0.9 °F 84% 29.87 in 10.0 mi Calm Calm - N/A   Clear
11:53 PM -0.9 °F - -6.0 °F 79% 29.85 in 10.0 mi Calm Calm - N/A   Clear